GW4453 Weather Reports


Display with metric or nautical units.
time (UTC)temp
F
wind
direction
speed
MPH
gust
MPH
rain 1hr
in
rain 24hr
in
rain mn
in
humidity
%
barometer
mb
20260507191529 57 303 12.0 15.0 0.00 0.00 0.00 60 1018.2
20260507191026 57 259 11.0 13.0 0.00 0.00 0.00 60 1018.4
20260507190523 58 309 9.0 13.0 0.00 0.00 0.00 58 1018.4
20260507190022 57 300 16.0 21.0 0.00 0.00 0.00 58 1018.4
20260507185520 58 285 12.0 17.0 0.00 0.00 0.00 59 1018.1
20260507185016 58 327 5.0 7.0 0.00 0.00 0.00 56 1018.1
20260507184515 58 258 18.0 21.0 0.00 0.00 0.00 58 1018.4
20260507184012 57 277 10.0 11.0 0.00 0.00 0.00 58 1018.1
20260507183508 58 276 10.0 15.0 0.00 0.00 0.00 58 1018.4
20260507183005 57 287 11.0 13.0 0.00 0.00 0.00 57 1018.2
20260507182501 58 296 9.0 10.0 0.00 0.00 0.00 55 1018.1
20260507181957 59 356 5.0 9.0 0.00 0.00 0.00 54 1018.0
20260507181454 59 270 15.0 17.0 0.00 0.00 0.00 53 1018.2
20260507180950 59 259 2.0 2.0 0.00 0.00 0.00 52 1018.4
20260507180447 60 290 14.0 16.0 0.00 0.00 0.00 51 1018.1
20260507175943 60 305 7.0 10.0 0.00 0.00 0.00 51 1018.2
20260507175440 60 276 6.0 8.0 0.00 0.00 0.00 53 1018.0
20260507174938 59 295 9.0 11.0 0.00 0.00 0.00 54 1017.9
20260507174434 58 338 5.0 7.0 0.00 0.00 0.00 54 1018.0
20260507173932 57 300 5.0 6.0 0.00 0.00 0.00 56 1018.1
20260507173429 58 280 8.0 9.0 0.00 0.00 0.00 54 1018.1
20260507172926 57 312 6.0 9.0 0.00 0.00 0.00 55 1018.1
20260507172422 57 295 5.0 7.0 0.00 0.00 0.00 58 1018.1
20260507171919 55 309 6.0 7.0 0.00 0.00 0.00 60 1017.9
20260507171415 55 295 9.0 10.0 0.00 0.00 0.00 62 1018.1
20260507170912 56 299 9.0 11.0 0.00 0.00 0.00 60 1018.2
20260507170409 57 296 9.0 10.0 0.00 0.00 0.00 54 1018.2
20260507165905 58 303 7.0 13.0 0.00 0.00 0.00 49 1018.0
20260507165401 57 307 3.0 5.0 0.00 0.00 0.00 50 1018.1
20260507164857 57 286 5.0 6.0 0.00 0.00 0.00 52 1017.9
20260507164354 57 291 4.0 5.0 0.00 0.00 0.00 53 1018.1
20260507163851 56 330 3.0 5.0 0.00 0.00 0.00 56 1018.0
20260507163349 56 314 2.0 2.0 0.00 0.00 0.00 56 1018.0
20260507162845 57 15 5.0 7.0 0.00 0.00 0.00 57 1018.0
20260507162340 58 19 3.0 3.0 0.00 0.00 0.00 50 1017.8
20260507161838 59 280 7.0 8.0 0.00 0.00 0.00 47 1017.9
20260507161334 58 351 4.0 5.0 0.00 0.00 0.00 48 1018.0
20260507160831 59 7 5.0 5.0 0.00 0.00 0.00 47 1017.7
20260507160326 58 346 9.0 11.0 0.00 0.00 0.00 45 1017.8
20260507155823 57 5 3.0 5.0 0.00 0.00 0.00 41 1017.9
20260507155319 57 349 5.0 6.0 0.00 0.00 0.00 41 1017.7
20260507154816 59 31 4.0 6.0 0.00 0.00 0.00 38 1017.7
20260507154313 59 11 1.0 2.0 0.00 0.00 0.00 39 1018.0
20260507153810 57 235 3.0 3.0 0.00 0.00 0.00 39 1017.9
20260507153306 55 5 3.0 3.0 0.00 0.00 0.00 40 1018.0
20260507152803 55 340 4.0 5.0 0.00 0.00 0.00 40 1017.7
20260507152259 53 182 1.0 1.0 0.00 0.00 0.00 42 1018.0
20260507151755 50 181 2.0 2.0 0.00 0.00 0.00 45 1018.0
20260507151252 48 168 3.0 3.0 0.00 0.00 0.00 48 1018.0
20260507150749 48 167 1.0 2.0 0.00 0.00 0.00 48 1018.5
20260507150246 47 233 2.0 2.0 0.00 0.00 0.00 47 1018.4
20260507145741 47 28 0.0 1.0 0.00 0.00 0.00 47 1018.4
20260507145238 45 76 0.0 0.0 0.00 0.00 0.00 47 1018.6
20260507144735 44 56 0.0 1.0 0.00 0.00 0.00 48 1018.4
20260507144233 44 51 0.0 0.0 0.00 0.00 0.00 48 1018.6
20260507143729 44 48 3.0 3.0 0.00 0.00 0.00 49 1018.5
20260507143227 44 56 3.0 3.0 0.00 0.00 0.00 50 1018.4
20260507142723 44 29 1.0 2.0 0.00 0.00 0.00 50 1018.4
20260507142219 44 153 0.0 0.0 0.00 0.00 0.00 49 1018.2
20260507141715 43 154 1.0 1.0 0.00 0.00 0.00 50 1018.0
20260507141213 43 170 0.0 1.0 0.00 0.00 0.00 50 1018.1
20260507140708 42 254 1.0 1.0 0.00 0.00 0.00 51 1018.2
20260507140206 42 254 1.0 1.0 0.00 0.00 0.00 51 1018.1
20260507135703 42 252 3.0 3.0 0.00 0.00 0.00 52 1018.0
20260507135201 41 214 2.0 2.0 0.00 0.00 0.00 50 1018.0
20260507134657 41 190 0.0 0.0 0.00 0.00 0.00 50 1017.8
20260507134153 40 165 1.0 1.0 0.00 0.00 0.00 50 1017.6
20260507133649 40 141 1.0 1.0 0.00 0.00 0.00 50 1017.7
20260507133146 39 64 0.0 0.0 0.00 0.00 0.00 51 1017.9
20260507132644 39 82 0.0 1.0 0.00 0.00 0.00 51 1017.9
20260507132139 38 154 0.0 1.0 0.00 0.00 0.00 52 1017.8
20260507131637 37 53 2.0 2.0 0.00 0.00 0.00 53 1017.9
20260507131134 37 215 2.0 2.0 0.00 0.00 0.00 54 1017.6
20260507130630 37 46 3.0 3.0 0.00 0.00 0.00 54 1017.7
20260507130129 36 71 0.0 1.0 0.00 0.00 0.00 53 1017.6
20260507125627 38 54 6.0 7.0 0.00 0.00 0.00 54 1017.8
20260507125124 37 233 5.0 6.0 0.00 0.00 0.00 54 1017.3
20260507124620 35 12 9.0 9.0 0.00 0.00 0.00 58 1017.8
20260507124118 35 133 2.0 2.0 0.00 0.00 0.00 57 1017.4
20260507123616 35 108 0.0 0.0 0.00 0.00 0.00 56 1017.3
20260507123113 34 97 0.0 0.0 0.00 0.00 0.00 58 1017.3
20260507122608 33 71 1.0 1.0 0.00 0.00 0.00 60 1017.4
20260507122104 33 71 0.0 0.0 0.00 0.00 0.00 64 1017.2
20260507121601 32 66 1.0 1.0 0.00 0.00 0.00 65 1017.2
20260507121056 31 75 0.0 0.0 0.00 0.00 0.00 66 1017.1
20260507120552 31 37 0.0 0.0 0.00 0.00 0.00 65 1017.1
20260507120049 30 75 0.0 0.0 0.00 0.00 0.00 62 1017.1
20260507115546 30 75 0.0 0.0 0.00 0.00 0.00 61 1016.8
20260507115042 30 47 0.0 0.0 0.00 0.00 0.00 60 1016.9
20260507114537 28 35 0.0 0.0 0.00 0.00 0.00 64 1017.0
20260507114035 27 21 1.0 1.0 0.00 0.00 0.00 68 1016.9
20260507113532 26 20 1.0 1.0 0.00 0.00 0.00 71 1016.9
20260507113029 25 21 1.0 1.0 0.00 0.00 0.00 74 1016.8
20260507112527 25 46 0.0 0.0 0.00 0.00 0.00 75 1016.8
20260507112023 25 54 2.0 2.0 0.00 0.00 0.00 75 1016.8
20260507111521 25 144 0.0 0.0 0.00 0.00 0.00 75 1016.4
20260507111017 25 150 1.0 1.0 0.00 0.00 0.00 75 1016.9
20260507110514 25 129 0.0 0.0 0.00 0.00 0.00 73 1016.8
20260507110010 25 192 1.0 1.0 0.00 0.00 0.00 73 1017.0
20260507105507 25 324 1.0 1.0 0.00 0.00 0.00 74 1016.8
20260507105003 24 240 3.0 3.0 0.00 0.00 0.00 75 1017.0
20260507104501 25 183 2.0 2.0 0.00 0.00 0.00 74 1017.1
20260507103956 26 55 0.0 0.0 0.00 0.00 0.00 70 1017.1
20260507103453 26 54 0.0 1.0 0.00 0.00 0.00 70 1017.2
20260507102949 25 49 0.0 0.0 0.00 0.00 0.00 71 1017.1
20260507102446 25 50 1.0 2.0 0.00 0.00 0.00 72 1017.1
20260507101943 25 69 0.0 0.0 0.00 0.00 0.00 70 1017.0
20260507101437 26 43 0.0 0.0 0.00 0.00 0.00 67 1017.1
20260507100934 26 15 0.0 0.0 0.00 0.00 0.00 66 1016.9
20260507100432 26 14 1.0 1.0 0.00 0.00 0.00 66 1017.1
20260507095930 26 13 0.0 0.0 0.00 0.00 0.00 66 1016.9
20260507095427 26 53 1.0 1.0 0.00 0.00 0.00 67 1017.0
20260507094924 25 55 1.0 1.0 0.00 0.00 0.00 67 1016.9
20260507094420 25 55 0.0 0.0 0.00 0.00 0.00 66 1016.9
20260507093917 25 93 0.0 0.0 0.00 0.00 0.00 66 1016.9
20260507093415 25 109 1.0 1.0 0.00 0.00 0.00 65 1016.9
20260507092914 25 111 0.0 1.0 0.00 0.00 0.00 66 1017.0
20260507092409 26 148 2.0 2.0 0.00 0.00 0.00 65 1017.0
20260507091906 28 24 0.0 0.0 0.00 0.00 0.00 61 1016.8
20260507091402 28 28 0.0 1.0 0.00 0.00 0.00 61 1017.0
20260507090858 28 219 0.0 1.0 0.00 0.00 0.00 62 1016.9
20260507090354 28 219 0.0 0.0 0.00 0.00 0.00 61 1017.0
20260507085852 28 231 1.0 1.0 0.00 0.00 0.00 61 1016.8
20260507085348 30 288 2.0 2.0 0.00 0.00 0.00 57 1016.4
20260507084846 29 9 1.0 1.0 0.00 0.00 0.00 58 1016.6
20260507084342 29 290 1.0 1.0 0.00 0.00 0.00 59 1016.4
20260507083840 29 316 2.0 2.0 0.00 0.00 0.00 58 1016.6
20260507083336 29 322 1.0 1.0 0.00 0.00 0.00 59 1016.6
20260507082832 29 263 2.0 2.0 0.00 0.00 0.00 59 1016.4
20260507082328 29 324 2.0 2.0 0.00 0.00 0.00 58 1016.3
20260507081825 29 9 1.0 1.0 0.00 0.00 0.00 59 1016.4
20260507081321 29 22 0.0 1.0 0.00 0.00 0.00 59 1016.3
20260507080818 28 22 0.0 1.0 0.00 0.00 0.00 60 1016.3
20260507080314 28 22 0.0 1.0 0.00 0.00 0.00 60 1016.6
20260507075809 28 10 1.0 1.0 0.00 0.00 0.00 61 1016.5
20260507075307 27 336 1.0 1.0 0.00 0.00 0.00 62 1016.3
20260507074803 27 3 1.0 1.0 0.00 0.00 0.00 64 1016.4
20260507074301 27 325 1.0 1.0 0.00 0.00 0.00 62 1016.8
20260507073757 27 285 2.0 2.0 0.00 0.00 0.00 63 1016.6
20260507073254 28 249 2.0 2.0 0.00 0.00 0.00 62 1016.5
20260507072751 28 231 3.0 3.0 0.00 0.00 0.00 61 1016.4
20260507072248 29 242 3.0 3.0 0.00 0.00 0.00 60 1016.8
20260507071746 29 233 2.0 2.0 0.00 0.00 0.00 57 1016.8
20260507071242 30 335 1.0 1.0 0.00 0.00 0.00 57 1016.6
20260507070739 30 4 1.0 1.0 0.00 0.00 0.00 57 1016.6
20260507070236 29 290 1.0 1.0 0.00 0.00 0.00 59 1016.8
20260507065732 30 235 2.0 2.0 0.00 0.00 0.00 57 1016.8
20260507065230 30 309 2.0 2.0 0.00 0.00 0.00 58 1017.0
20260507064727 31 250 3.0 3.0 0.00 0.00 0.00 57 1017.1
20260507064226 31 245 3.0 3.0 0.00 0.00 0.00 55 1017.1
20260507063722 31 223 1.0 2.0 0.00 0.00 0.00 54 1017.3
20260507063219 31 217 2.0 2.0 0.00 0.00 0.00 54 1017.1
20260507062716 30 278 1.0 1.0 0.00 0.00 0.00 55 1017.2
20260507062214 30 33 0.0 0.0 0.00 0.00 0.00 57 1017.2
20260507061711 30 249 2.0 2.0 0.00 0.00 0.00 57 1017.2
20260507061209 29 239 2.0 2.0 0.00 0.00 0.00 59 1017.2
20260507060707 29 291 1.0 2.0 0.00 0.00 0.00 59 1017.1
20260507060203 30 242 3.0 3.0 0.00 0.00 0.00 57 1017.4
20260507055659 30 224 5.0 5.0 0.00 0.00 0.00 57 1017.1
20260507055155 29 246 6.0 7.0 0.00 0.00 0.00 60 1017.2
20260507054651 30 219 3.0 3.0 0.00 0.00 0.00 56 1017.3
20260507054148 31 358 2.0 2.0 0.00 0.00 0.00 54 1017.2
20260507053646 31 356 1.0 2.0 0.00 0.00 0.00 54 1017.4
20260507053144 31 21 1.0 1.0 0.00 0.00 0.00 53 1017.4
20260507052643 32 251 1.0 1.0 0.00 0.00 0.00 54 1017.7
20260507052138 32 235 1.0 1.0 0.00 0.00 0.00 52 1017.4
20260507051636 32 266 2.0 2.0 0.00 0.00 0.00 52 1017.6
20260507051132 31 18 1.0 1.0 0.00 0.00 0.00 53 1017.6
20260507050629 30 13 1.0 1.0 0.00 0.00 0.00 56 1017.4
20260507050126 31 30 0.0 0.0 0.00 0.00 0.00 55 1017.6
20260507045623 31 20 0.0 0.0 0.00 0.00 0.00 53 1017.7
20260507045120 31 338 1.0 1.0 0.00 0.00 0.00 54 1017.6
20260507044617 30 286 1.0 1.0 0.00 0.00 0.00 56 1017.3
20260507044114 30 219 2.0 2.0 0.00 0.00 0.00 55 1017.8
20260507043609 31 243 3.0 3.0 0.00 0.00 0.00 55 1017.4
20260507043107 31 246 2.0 2.0 0.00 0.00 0.00 55 1017.8
20260507042603 31 233 5.0 5.0 0.00 0.00 0.00 55 1017.7
20260507042058 31 236 3.0 3.0 0.00 0.00 0.00 56 1017.6
20260507041555 32 233 2.0 2.0 0.00 0.00 0.00 53 1017.8
20260507041052 32 253 2.0 2.0 0.00 0.00 0.00 53 1017.4
20260507040549 32 252 3.0 3.0 0.00 0.00 0.00 53 1017.6
20260507040045 33 241 1.0 2.0 0.00 0.00 0.00 52 1017.7
20260507035541 33 229 3.0 3.0 0.00 0.00 0.00 50 1017.7
20260507035038 33 223 4.0 5.0 0.00 0.00 0.00 50 1017.3
20260507034534 34 233 2.0 2.0 0.00 0.00 0.00 49 1017.6
20260507034032 34 245 1.0 1.0 0.00 0.00 0.00 48 1017.6
20260507033530 34 227 2.0 2.0 0.00 0.00 0.00 49 1017.6
20260507033027 35 236 2.0 2.0 0.00 0.00 0.00 47 1017.6
20260507032524 35 292 2.0 2.0 0.00 0.00 0.00 49 1017.8
20260507032020 36 279 1.0 1.0 0.00 0.00 0.00 46 1017.4
20260507031516 35 279 2.0 2.0 0.00 0.00 0.00 46 1017.4
20260507031014 34 324 1.0 1.0 0.00 0.00 0.00 51 1017.7
20260507030511 35 192 1.0 1.0 0.00 0.00 0.00 51 1017.7
20260507030008 37 191 0.0 0.0 0.00 0.00 0.00 49 1017.8
20260507025505 37 193 0.0 1.0 0.00 0.00 0.00 48 1017.6
20260507025003 38 194 1.0 1.0 0.00 0.00 0.00 48 1017.7
20260507024500 39 193 1.0 2.0 0.00 0.00 0.00 40 1017.6
20260507023956 41 193 1.0 1.0 0.00 0.00 0.00 38 1017.7
20260507023452 43 209 0.0 0.0 0.00 0.00 0.00 37 1017.4
20260507022949 44 211 1.0 2.0 0.00 0.00 0.00 35 1017.6
20260507022447 44 217 3.0 3.0 0.00 0.00 0.00 36 1017.9
20260507021942 46 37 0.0 0.0 0.00 0.00 0.00 33 1017.6
20260507021437 48 39 0.0 0.0 0.00 0.00 0.00 30 1017.4
20260507020936 49 35 0.0 0.0 0.00 0.00 0.00 29 1017.8
20260507020432 49 34 0.0 0.0 0.00 0.00 0.00 29 1018.0
20260507015929 50 29 0.0 0.0 0.00 0.00 0.00 28 1017.8
20260507015428 51 30 0.0 1.0 0.00 0.00 0.00 27 1018.0
20260507014924 52 23 1.0 1.0 0.00 0.00 0.00 27 1018.0
20260507014420 52 18 1.0 1.0 0.00 0.00 0.00 26 1017.8
20260507013917 52 347 3.0 3.0 0.00 0.00 0.00 25 1018.1
20260507013414 53 14 2.0 2.0 0.00 0.00 0.00 25 1018.0
20260507012912 53 346 3.0 3.0 0.00 0.00 0.00 24 1018.0
20260507012408 53 41 2.0 2.0 0.00 0.00 0.00 24 1017.9
20260507011905 54 316 1.0 2.0 0.00 0.00 0.00 23 1017.9
20260507011401 55 37 1.0 1.0 0.00 0.00 0.00 23 1018.0
20260507010855 55 5 2.0 2.0 0.00 0.00 0.00 22 1018.0
20260507010351 55 277 2.0 2.0 0.00 0.00 0.00 23 1018.0
20260507005849 56 330 3.0 5.0 0.00 0.00 0.00 22 1017.8
20260507005345 55 299 5.0 6.0 0.00 0.00 0.00 22 1018.0
20260507004842 55 272 4.0 5.0 0.00 0.00 0.00 22 1018.1
20260507004339 55 264 7.0 8.0 0.00 0.00 0.00 21 1018.0
20260507003836 55 289 7.0 8.0 0.00 0.00 0.00 21 1018.1
20260507003332 55 282 6.0 8.0 0.00 0.00 0.00 22 1017.9
20260507002827 55 291 5.0 8.0 0.00 0.00 0.00 22 1018.4
20260507002323 54 297 4.0 5.0 0.00 0.00 0.00 23 1018.4
20260507001821 55 269 7.0 9.0 0.00 0.00 0.00 25 1018.2
20260507001318 55 243 3.0 3.0 0.00 0.00 0.00 23 1018.1
20260507000814 54 267 5.0 7.0 0.00 0.00 0.00 23 1018.4
20260507000310 54 258 7.0 8.0 0.00 0.00 0.00 22 1018.2
20260506235806 55 333 7.0 9.0 0.00 0.00 0.00 22 1018.5
20260506235306 55 2 3.0 3.0 0.00 0.00 0.00 22 1018.5
20260506234759 54 239 6.0 8.0 0.00 0.00 0.00 23 1018.2
20260506234256 55 248 8.0 9.0 0.00 0.00 0.00 22 1018.2
20260506233754 55 275 5.0 6.0 0.00 0.00 0.00 22 1018.5
20260506233250 55 221 2.0 2.0 0.00 0.00 0.00 21 1018.6
20260506232747 56 286 7.0 9.0 0.00 0.00 0.00 21 1018.7
20260506232242 56 253 5.0 6.0 0.00 0.00 0.00 21 1018.6
20260506231739 55 305 5.0 7.0 0.00 0.00 0.00 22 1018.8
20260506231238 55 265 6.0 7.0 0.00 0.00 0.00 21 1018.8
20260506230734 55 269 5.0 7.0 0.00 0.00 0.00 22 1018.8
20260506230231 54 301 4.0 5.0 0.00 0.00 0.00 22 1018.9
20260506225728 54 306 6.0 7.0 0.00 0.00 0.00 21 1019.1
20260506225225 55 320 6.0 7.0 0.00 0.00 0.00 22 1019.4
20260506224721 55 290 7.0 9.0 0.00 0.00 0.00 21 1019.5
20260506224218 54 283 10.0 14.0 0.00 0.00 0.00 22 1019.5
20260506223714 53 276 6.0 8.0 0.00 0.00 0.00 22 1019.6
20260506223210 54 278 5.0 6.0 0.00 0.00 0.00 22 1019.9
20260506222708 55 293 12.0 15.0 0.00 0.00 0.00 21 1019.8
20260506222203 55 293 8.0 9.0 0.00 0.00 0.00 23 1020.1
20260506221701 54 330 8.0 13.0 0.00 0.00 0.00 22 1020.1
20260506221159 54 244 6.0 8.0 0.00 0.00 0.00 22 1020.3
20260506220655 53 293 5.0 6.0 0.00 0.00 0.00 23 1020.3
20260506220150 53 358 5.0 6.0 0.00 0.00 0.00 23 1020.3
20260506215647 53 328 6.0 9.0 0.00 0.00 0.00 23 1020.4
20260506215143 54 280 11.0 14.0 0.00 0.00 0.00 23 1020.6
20260506214640 54 317 11.0 14.0 0.00 0.00 0.00 23 1020.5
20260506214137 53 275 16.0 20.0 0.00 0.00 0.00 24 1020.5
20260506213636 55 291 12.0 17.0 0.00 0.00 0.00 22 1020.5
20260506213132 53 279 12.0 13.0 0.00 0.00 0.00 23 1020.6
20260506212630 54 257 8.0 9.0 0.00 0.00 0.00 23 1020.5
20260506212124 52 278 8.0 9.0 0.00 0.00 0.00 24 1021.0
20260506211620 54 302 6.0 7.0 0.00 0.00 0.00 24 1021.2
20260506211117 53 356 5.0 8.0 0.00 0.00 0.00 23 1021.2
20260506210614 53 290 7.0 9.0 0.00 0.00 0.00 24 1021.4
20260506210110 52 298 7.0 15.0 0.00 0.00 0.00 24 1021.4
20260506205608 53 278 11.0 14.0 0.00 0.00 0.00 23 1021.6
20260506205102 52 277 10.0 14.0 0.00 0.00 0.00 24 1021.4
20260506204601 51 286 9.0 10.0 0.00 0.00 0.00 25 1021.6
20260506204057 52 258 15.0 18.0 0.00 0.00 0.00 24 1021.8
20260506203556 52 307 9.0 14.0 0.00 0.00 0.00 24 1021.9
20260506203052 52 328 4.0 6.0 0.00 0.00 0.00 24 1021.8
20260506202549 52 270 10.0 11.0 0.00 0.00 0.00 25 1022.0
20260506202046 50 222 10.0 11.0 0.00 0.00 0.00 26 1022.0
20260506201543 51 247 9.0 10.0 0.00 0.00 0.00 24 1022.0
20260506201040 52 285 5.0 6.0 0.00 0.00 0.00 25 1022.1
20260506200536 50 255 9.0 11.0 0.00 0.00 0.00 26 1022.2
20260506200033 51 325 3.0 3.0 0.00 0.00 0.00 26 1022.2
20260506195530 50 282 9.0 10.0 0.00 0.00 0.00 26 1021.9
20260506195026 51 27 3.0 3.0 0.00 0.00 0.00 25 1022.7
20260506194524 50 333 4.0 6.0 0.00 0.00 0.00 27 1022.5
20260506194020 50 264 8.0 10.0 0.00 0.00 0.00 27 1022.4
20260506193517 50 259 3.0 5.0 0.00 0.00 0.00 27 1022.7
20260506193015 49 235 6.0 7.0 0.00 0.00 0.00 27 1022.7
20260506192511 49 263 5.0 6.0 0.00 0.00 0.00 26 1022.7
20260506192007 50 353 4.0 6.0 0.00 0.00 0.00 27 1022.7